This demonstration page uses our WeatherBlox Daily Observations layout. Learn more.

38.88101, -77.10428

Hourly Observations for April 18, 2018

Temp ( °F °C ) Dew Point ( °F °C ) Humidity (%) Winds ( mph kmh ) Pressure ( in mb ) Visibility ( mi km ) Precip ( " mm )
12:52 am 00:52 Mostly Clear 40 4.4 21 -6.1 47 47 WNW 9 15 29.91 1013 10 16.0934 0 0
1:52 am 01:52 Mostly Clear 40 4.4 21 -6.1 47 47 WNW 12 19 29.91 1013 10 16.0934 0 0
2:52 am 02:52 Partly Cloudy 40 4.4 21 -6.1 47 47 W 7 11 29.9 1013 10 16.0934 0 0
3:52 am 03:52 Mostly Clear 39 3.9 22 -5.6 50 50 W 8 13 29.91 1013 10 16.0934 0 0
4:52 am 04:52 Partly Cloudy 37 2.8 23 -5 57 57 WSW 7 11 29.91 1013 10 16.0934 0 0
5:52 am 05:52 Mostly Clear 36 2.2 23 -5 59 59 WSW 7 11 29.93 1013 10 16.0934 0 0
6:52 am 06:52 Mostly Sunny 39 3.9 22 -5.6 50 50 NW 8 13 29.94 1014 10 16.0934 0 0
7:52 am 07:52 Mostly Sunny 42 5.6 23 -5 47 47 NW 9 15 29.95 1014 10 16.0934 0 0
8:52 am 08:52 Mostly Sunny 45 7.2 24 -4.4 44 44 NNW 14 22 29.94 1014 10 16.0934 0 0
9:52 am 09:52 Mostly Sunny 46 7.8 25 -3.9 44 44 NNW 10 17 29.94 1014 10 16.0934 0 0
10:52 am 10:52 Mostly Sunny 50 10 27 -2.8 41 41 WSW 9 15 29.92 1013 10 16.0934 0 0
11:52 am 11:52 Sunny 54 12.2 30 -1.1 40 40 WSW 10 17 29.91 1013 10 16.0934 0 0
12:52 pm 12:52 Mostly Sunny 55 12.8 31 -0.6 40 40 SSW 5 7 29.88 1012 10 16.0934 0 0
1:52 pm 13:52 Sunny 57 13.9 34 1.1 42 42 S 13 20 29.86 1011 10 16.0934 0 0
2:52 pm 14:52 Mostly Sunny 59 15 35 1.7 41 41 SSE 8 13 29.84 1011 10 16.0934 0 0
3:52 pm 15:52 Mostly Sunny 60 15.6 36 2.2 41 41 SSE 9 15 29.81 1010 10 16.0934 0 0
4:52 pm 16:52 Sunny 61 16.1 37 2.8 41 41 SE 6 9 29.8 1009 10 16.0934 0 0
5:52 pm 17:52 Sunny 62 16.7 36 2.2 38 38 SE 3 6 29.78 1008 10 16.0934 0 0
6:52 pm 18:52 Sunny 61 16.1 39 3.9 44 44 SE 3 6 29.76 1008 10 16.0934 0 0
7:52 pm 19:52 Clear 58 14.4 41 5 53 53 E 10 17 29.75 1008 10 16.0934 0 0
8:52 pm 20:52 Clear 55 12.8 37 2.8 51 51 ESE 12 19 29.76 1008 10 16.0934 0 0
9:52 pm 21:52 Clear 53 11.7 37 2.8 55 55 S 5 7 29.75 1008 10 16.0934 0 0
10:52 pm 22:52 Clear 53 11.7 38 3.3 57 57 SE 3 6 29.73 1007 10 16.0934 0 0
11:52 pm 23:52 Clear 52 11.1 39 3.9 61 61 Calm 29.7 1006 10 16.0934 0 0

Powered by AerisWeather